Home > Weather > Escondido > Past weeks

Flag for USA Past Weather in Escondido, California, USA — Yesterday and Last 2 Weeks

Now
85 °F

Sunny.


Feels Like: 86 °F
Forecast: 66 / 86 °F
Wind: 10 mph from West

Location: Ramona Airport

Current Time: Jul 29, 2016 at 7:00:43 PM

Latest Report: Jul 29, 2016 at 5:53 PM


Visibility: 10 mi

Pressure: 29.77 "Hg

Humidity: 50%

Dew Point: 64 °F

Location of EscondidoLocation

Past Weather in Escondido — Graph

°F

Escondido Temperature Yesterday

Maximum temperature yesterday: 95 °F (at 1:53 PM)
Minimum temperature yesterday: 63 °F (at 4:53 AM)
Average temperature yesterday: 79 °F

High & Low Weather Summary for the Past Weeks

 TemperatureHumidityPressure
High104 °F (Jul 22, 12:53 PM)97% (Jul 15, 5:53 AM)30.03 "Hg (Jul 15, 5:53 AM)
Low57 °F (Jul 15, 2:53 AM)8% (Jul 22, 10:53 AM)29.77 "Hg (Jul 29, 5:53 PM)
Average77 °F50%29.90 "Hg
* Reported Jul 14 5:53 PM — Jul 29 5:53 PM, Escondido, Weather by CustomWeather, © 2016

Note: Actual official high and low records may vary slightly from our data, if they occured in-between our weather recording intervals... More about our weather records

Advertising

Escondido Weather History for the Previous 24 Hours

Scroll right to see more
 ConditionsComfort  
Time TempWeatherWind HumidityBarometerVisibility
5:53 PM
Fri, Jul 29
85 °FSunny.10 mph50%29.77 "Hg10 mi
4:53 PM88 °FSunny.9 mph45%29.77 "Hg10 mi
3:53 PM91 °FSunny.12 mph41%29.77 "Hg10 mi
2:53 PM93 °FSunny.9 mph40%29.78 "Hg10 mi
1:53 PM93 °FSunny.10 mph40%29.80 "Hg10 mi
12:53 PM93 °FSunny.9 mph38%29.81 "Hg10 mi
11:53 AM92 °FSunny.9 mph38%29.82 "Hg10 mi
10:53 AM90 °FSunny.10 mph37%29.83 "Hg10 mi
9:53 AM87 °FSunny.13 mph32%29.83 "Hg10 mi
8:53 AM85 °FSunny.No wind24%29.83 "Hg10 mi
7:53 AM78 °FSunny.No wind37%29.83 "Hg10 mi
6:53 AM69 °FClear.No wind53%29.83 "Hg10 mi
5:53 AM64 °FClear.No wind61%29.81 "Hg10 mi
4:53 AM66 °FClear.No wind59%29.80 "Hg10 mi
3:53 AM64 °FClear.No wind61%29.80 "Hg10 mi
2:53 AM65 °FClear.No wind59%29.81 "Hg10 mi
1:53 AM68 °FClear.3 mph55%29.81 "Hg10 mi
12:53 AM68 °FClear.No wind55%29.81 "Hg10 mi
11:53 PM
Thu, Jul 28
71 °FClear.No wind51%29.83 "Hg10 mi
10:53 PM72 °FClear.No wind49%29.83 "Hg10 mi
9:53 PM73 °FClear.3 mph50%29.84 "Hg10 mi
8:53 PM75 °FClear.3 mph47%29.83 "Hg10 mi
7:53 PM79 °FSunny.6 mph41%29.83 "Hg10 mi
Weather by CustomWeather, © 2016

See weather overviewHow to use our weather pages